Location: Saalfelden+am+Steinernen+Meer
(47.4274°N, 12.8411°E)
Time: 20:43:02
(UTC+01:00)

N. Korean satellite - Visible Passes

Search period start: 18 November 2017 00:00
Search period end: 28 November 2017 00:00
Orbit: 460 x 515 km, 97.2° (Epoch: 17 November)

Date Brightness Start Highest point End Pass type
(mag) Time Alt. Az. Time Alt. Az. Time Alt. Az.
18 Nov 9.3 06:19:19 10° NE 06:22:27 25° E 06:25:37 10° SSE visible
18 Nov 8.1 16:59:38 10° ESE 17:01:54 16° ENE 17:04:11 10° NNE visible
18 Nov 8.0 18:31:51 10° SSW 18:35:08 38° W 18:38:29 10° NNW visible
19 Nov 10.0 05:56:42 10° NE 05:58:49 14° E 06:00:56 10° SE visible
19 Nov 6.6 18:08:06 10° S 18:11:36 78° WSW 18:15:11 10° NNW visible
20 Nov 6.6 17:44:44 10° SSE 17:48:09 53° ENE 17:51:39 10° N visible
20 Nov 10.0 19:20:44 10° WSW 19:22:02 12° W 19:23:20 10° WNW visible
21 Nov 7.9 06:42:03 10° NNE 06:45:40 46° E 06:49:18 10° S visible
21 Nov 7.4 17:21:44 10° SE 17:24:47 28° ENE 17:27:54 10° N visible
21 Nov 9.2 18:55:36 10° SW 18:58:20 21° W 19:01:07 10° NW visible
22 Nov 9.2 06:18:55 10° NE 06:22:05 25° E 06:25:15 10° SSE visible
22 Nov 8.1 16:59:10 10° ESE 17:01:29 17° ENE 17:03:49 10° NNE visible
22 Nov 8.0 18:31:23 10° SSW 18:34:42 39° W 18:38:06 10° NNW visible
23 Nov 10.0 05:56:16 10° NE 05:58:25 15° E 06:00:33 10° SE visible
23 Nov 6.6 18:07:38 10° S 18:11:09 78° WSW 18:14:47 10° NNW visible
24 Nov 6.6 17:44:14 10° SSE 17:47:41 53° ENE 17:51:14 10° N visible
24 Nov 10.0 19:20:11 10° WSW 19:21:34 12° W 19:22:58 10° WNW visible
25 Nov 7.9 06:41:35 10° NNE 06:45:13 46° E 06:48:51 10° S visible
25 Nov 7.4 17:21:13 10° SE 17:24:18 28° ENE 17:27:28 10° N visible
25 Nov 9.2 18:55:03 10° SW 18:57:51 21° W 19:00:41 10° NW visible
26 Nov 9.2 06:18:26 10° NE 06:21:37 25° E 06:24:47 10° SSE visible
26 Nov 8.1 16:58:38 10° ESE 17:00:59 17° ENE 17:03:21 10° NNE visible
26 Nov 8.0 18:30:50 10° SSW 18:34:12 39° W 18:37:38 10° NNW visible
27 Nov 9.9 05:55:47 10° NE 05:57:55 15° E 06:00:04 10° SE visible
27 Nov 6.6 18:07:05 10° S 18:10:38 79° WSW 18:14:17 10° NNW visible
